User: anonymous   Login
Location: Newark
(46.9000°N, 28.3500°E)
Time: 04:08:32
(UTC+00:00)
Language:

Transit 4A - Orbit

View from above orbital plane
View from above orbital plane
View from above satellite
View from above satellite

Ground track
Ground track

The orbit data is extracted from the following two-line orbital elements,

1   116U 61015A   19232.22422892 -.00000075  00000-0  17481-5 0  9998
2   116  66.8077 227.0316 0080798 224.4038 135.0545 13.91756761950249
Epoch (UTC): 20 August 2019 05:22:53
Eccentricity: 0.0080798
inclination: 66.8077°
perigee height: 863 km
apogee height: 981 km
right ascension of ascending node: 227.0316°
argument of perigee: 224.4038°
revolutions per day: 13.91756761
mean anomaly at epoch: 135.0545°
orbit number at epoch: 95024

The dashed part of the orbit path shows where the satellite is in the earth's shadow,  

DLR